DECAYED

OBJECT AW, 59142 (Decayed)

Orbit data source: Space-Track

You're viewing an uncataloged RSO

Recently launched and/or uncataloged RSOs may have evolving metadata. Metadata may include the following, but is not limited to: Owner, Manufacturer, Bus, Motor, and Mission.

OBJECT AW, 59142 was a satellite in LEO that was launched on Mon, 04 Mar 2024 UTC via an FALCON 9 launch vehicle from the Air Force Western Test Range (AFWTR). Unknown objects in Earth's orbit typically refer to objects detected orbiting the Earth but have not yet been identified or cataloged. These objects could be anything from previously untracked satellites, spent rocket stages, debris from satellite collisions, or even natural meteoroids temporarily captured by Earth's gravity. This object's orbit decayed before it could be identified.

Not visible in the next 10 days
Identifier
59142, 2024-043AW
Orbit
Decayed
Country
Flag of TBDTBD
Related business
None
Manufacturer
Unknown
Mission
Decayed Commercial Weather
Bus & Motor
Unknown
Mass
Unknown
Launch date (UTC)
2024-03-04 (3 years ago)
Launch vehicle
FALCON 9
Launch site
Air Force Western Test Range (AFWTR)
Object type
Unknown
Shape & HBR
Box, 0.1 m
Radar Cross Section
0.015 m², Medium (>0.1 m² and < 1m²)

Expand to show TLE details & history
Last TLE update: 3 months ago

TLE from 3 months ago
0 OBJECT AW
1 59142U 24043AW  26163.18494273  .07546685  26262-5  42531-3 0  9992
2 59142  97.5138 324.2689 0013917 262.5222  97.4497 16.40864461127822
Epoch: 2026-06-12T04:26Z
TLE epoch observation values (Epoch: 2026-06-12T04:26:19.051Z)
Latitude
0.00001°
Longitude
-2.8285°
Altitude
167.946 km
Speed
7.805 km/s
True Right ascension
21h 37m 04s
True Declination
0° 00' 00"
Sunlit
Object was in full shadow at epoch
Visualization orbit readout
Latitude
Unknown
Longitude
Unknown
Altitude
Unknown
Speed
Unknown
Apparent Right ascension
Unknown
Apparent Declination
Unknown
Sunlit
N/A
Visualization observer readout
Local Sidereal Time
06:19:03
Azimuth
Unknown
Elevation
Unknown
Doppler factor
Unknown
Orbital elements
Apogee altitude
169.415 km
Perigee altitude
151.216 km
Semi-major axis
6,538.453 km
Eccentricity
0.00139
Inclination
97.5138°
RAAN
324.2689°
Arg. of periapsis
262.5222°
True anomaly
97.6078°
Mean anomaly
97.4497°
Eccentric anomaly
97.52875°
Mean motion
4.10517 °/min
Orbital period
87.69 mins
BSTAR
0.00042531
Loading maneuver chart data...
Computing Atmospheric mass density...
Loading historical data...
Loading historical data...
Loading historical data...
Loading historical data...
Loading historical data...
Loading historical data...
Loading historical data...

Documentation

Showing up to 5 results
|